Regional Weather Roundup
Issued by NWS

Home | Current Version | Previous Version | Graphics & Text | Print | Product List | Glossary On
Versions: 1 2 3 4 5 6 7 8 9 10 11 12 13 14 15 16 17 18 19 20 21 22 23 24 25 26 27 28 29 30 31 32 33 34 35 36 37 38 39 40 41 42 43 44 45 46 47 48 49 50
000
ASUS43 KOAX 231310
RWRNE

WEATHER ROUNDUP FOR NEBRASKA
NATIONAL WEATHER SERVICE OMAHA NE
800 AM CDT SAT SEP 23 2017

NOTES: SATELLITE DATA IS BEING USED TO AUGMENT CLOUD COVER ABOVE
       12000 FEET.
       "FAIR" INDICATES FEW OR NO CLOUDS BELOW 12,000 FEET WITH NO
       SIGNIFICANT WEATHER AND/OR OBSTRUCTIONS TO VISIBILITY.


NEZ001>004-019>022-054>056-231400-
NEBRASKA PANHANDLE

CITY           SKY/WX    TMP DP  RH WIND       PRES   REMARKS
SCOTTSBLUFF    CLOUDY    45  38  76 NW7       30.04R
ALLIANCE       CLOUDY    44  40  85 N13       30.00R
CHADRON        LGT RAIN  44  39  82 NE9       30.04F
GORDON         CLOUDY    44  42  94 N9        30.04R
KIMBALL        CLOUDY    44  40  87 N8        30.00S
SIDNEY         CLOUDY    47  40  76 N14       29.98S
$$

NEZ057>060-069>072-079>082-231400-
SOUTHWEST NEBRASKA

CITY           SKY/WX    TMP DP  RH WIND       PRES   REMARKS
NORTH PLATTE   CLOUDY    52  50  93 NE10      29.94R
IMPERIAL       CLOUDY    52  48  86 N12       29.92R
LEXINGTON      CLOUDY    61  54  78 CALM      29.92R
MCCOOK         MOCLDY    70  65  84 E6        29.87R
OGALLALA       CLOUDY    50  48  91 NE14      29.95S
$$

NEZ005>010-023>029-035>040-094-231400-
NORTH CENTRAL NEBRASKA

CITY           SKY/WX    TMP DP  RH WIND       PRES   REMARKS
VALENTINE      LGT RAIN  49  47  93 N9        30.01R
AINSWORTH      LGT RAIN  48  48 100 N7        29.99R
BROKEN BOW     CLOUDY    54  50  86 NE9       29.94S
O`NEILL        CLOUDY    53  53  99 N5        29.97S
ORD            CLOUDY    55  51  86 NE7       29.94R
THEDFORD       CLOUDY    48  47  97 NE9       30.00R THUNDER
$$

NEZ041-046>049-061>064-073>077-083>087-231400-
SOUTH CENTRAL NEBRASKA

CITY           SKY/WX    TMP DP  RH WIND       PRES   REMARKS
GRAND ISLAND   CLOUDY    68  67  96 NE3       29.94R
AURORA         CLOUDY    70  67  91 S7        29.92R
HASTINGS       CLEAR     72  64  76 S8        29.92R
HEBRON         CLEAR     72  66  82 S9        29.92S
HOLDREGE       CLEAR     69  64  86 SE7       29.90S
KEARNEY        MOCLDY    67  64  90 SE8       29.92S
YORK           MOCLDY    70  68  94 S8        29.93R
$$

NEZ011>018-030>034-042>045-231400-
NORTHEAST NEBRASKA

CITY           SKY/WX    TMP DP  RH WIND       PRES   REMARKS
NORFOLK        CLOUDY    58  57  97 N12       29.95R
ALBION         CLOUDY    59  56  90 CALM      29.95S
BLAIR          CLEAR     71  67  89 SE7       29.96R
COLUMBUS       MOCLDY    72  67  84 CALM      29.95R
FREMONT        PTCLDY    72  66  83 SE8       29.94R
TEKAMAH        PTCLDY    70  67  90 SE6       29.94R
WAYNE          CLOUDY    60  57  91 N7        29.96R FOG
$$

NEZ050>053-065>068-078-088>093-231400-
SOUTHEAST NEBRASKA

CITY           SKY/WX    TMP DP  RH WIND       PRES   REMARKS
LINCOLN        CLEAR     71  67  87 S9        29.94R
OMAHA EPPLEY   MOCLDY    73  67  81 S9        29.96R
BEATRICE       CLEAR     72  67  84 SE5       29.95R
FALLS CITY     CLEAR     69  66  90 SE3       29.97R
NEBRASKA CITY  CLEAR     69  69 100 SE5       29.98R
PLATTSMOUTH    CLEAR     69  69  98 SE8       29.97R
$$

NEZ044-045-051>053-067-231400-
OMAHA AREA

CITY           SKY/WX    TMP DP  RH WIND       PRES   REMARKS
OMAHA EPPLEY   MOCLDY    73  67  81 S9        29.96R
BLAIR          CLEAR     71  67  89 SE7       29.96R
FREMONT        PTCLDY    72  66  83 SE8       29.94R
MILLARD        CLEAR     72  68  89 SE6       29.96R
OFFUTT AFB     CLEAR     71  67  88 SE8       29.96R
PLATTSMOUTH    CLEAR     69  69  98 SE8       29.97R
WAHOO          CLOUDY    71  68  92 SE9       29.94S
$$




USA.gov is the U.S. government's official web portal to all federal, state and local government web resources and services.